Location: Caltech
(34.1382°N, 118.1253°W)
Time: 02:25:52
(UTC-07:00)

UOSAT-12 - Visible Passes

Search period start: 22 June 2018 00:00
Search period end: 02 July 2018 00:00
Orbit: 592 x 661 km, 64.6° (Epoch: 21 June)

Date Brightness Start Highest point End Pass type
(mag) Time Alt. Az. Time Alt. Az. Time Alt. Az.
22 Jun 7.1 21:28:10 10° NNW 21:32:52 75° ENE 21:35:23 26° SE visible
23 Jun 7.9 21:48:04 10° NW 21:52:32 45° WSW 21:54:53 24° S visible
24 Jun 9.3 22:08:45 10° WNW 22:12:01 19° WSW 22:14:27 13° SW visible
25 Jun 7.2 20:47:22 10° NNW 20:52:04 89° ENE 20:56:39 10° SSE visible
26 Jun 8.4 21:07:23 10° NW 21:11:42 37° WSW 21:15:54 10° S visible
27 Jun 9.6 21:28:21 10° WNW 21:31:08 16° WSW 21:33:53 10° SW visible
30 Jun 9.8 20:48:08 10° W 20:50:16 13° WSW 20:52:22 10° SW visible
